Find OneWeb SL0328

NORAD ID: 49197 Int'l Des: 2021-083 Owner: ONEWEBN Country: UK Constellation: oneweb operational
LEOCIRCULARPOLARONEWEB_TYPE

当前视图

正在加载3D地球...

About OneWeb SL0328

OneWeb SL0328 (NORAD 49197) is a oneweb constellation satellite launched Sep 14, 2021 by ONEWEBN of UK. It operates in LEO, CIRCULAR, POLAR, ONEWEB_TYPE orbit with a mass of 148.00 kg.

关于 OneWeb SL0328

正在加载描述...

即将过境

Passes for default location (London). Set your location on the main map for personalized predictions.

高度历史

Loading altitude history...

两行轨道根数

1 49197U 21083M 26171.34470278 -.00000043 00000-0 -15345-3 0 9996
2 49197 87.8966 319.5795 0001978 97.7905 262.3448 13.13469584231310
Epoch: Jun 20, 2026 • Age: 45 hours

当前状态

高度 1222.3 km
速度 7.24 km/s
星下点 -31.57°S, 151.73°E
发射日期 Sep 14, 2021
运行时间 4.7 years
类型 internet

技术详情

分类 Payload
质量 148.00 kg
干质量 140.00 kg
总质量 148.00 kg
长度 1.30 m
直径 1.00 m
跨度 5.00 m
形状 Trapezoid+2 pan
制造商 ONEWUS
平台类型 ARROW
阶段状态 In Orbit
所有者/国家 ONEWEBN/UK

Most Searched